"datetime","temp","dp","rain_mm","uv","solar","mb","wind_mph","gust_mph","windchill","rh"
"2020-02-05 00:00:00",6.5,5.3,0.0,0.0,0,1033.3,0,0,"",92
"2020-02-05 00:01:00",6.4,5.2,0.0,0.0,0,1033.3,0,0,"",92
"2020-02-05 00:02:00",6.4,5.2,0.0,0.0,0,1033.3,0,0,"",92
"2020-02-05 00:03:00",6.4,5.2,0.0,0.0,0,1033.3,0,0,"",92
"2020-02-05 00:04:00",6.4,5.0,0.0,0.0,0,1033.3,0,0,"",91
"2020-02-05 00:05:00",6.4,5.0,0.0,0.0,0,1033.4,0,0,"",91
"2020-02-05 00:06:00",6.4,5.0,0.0,0.0,0,1033.3,0,0,"",91
"2020-02-05 00:07:00",6.4,5.0,0.0,0.0,0,1033.4,0,0,"",91
"2020-02-05 00:08:00",6.4,5.0,0.0,0.0,0,1033.4,0,0,"",91
"2020-02-05 00:09:00",6.4,5.0,0.0,0.0,0,1033.4,0,0,"",91
"2020-02-05 00:10:00",6.4,5.0,0.0,0.0,0,1033.4,0,0,"",91
"2020-02-05 00:11:00",6.4,5.0,0.0,0.0,0,1033.4,0,0,"",91
"2020-02-05 00:12:00",6.4,5.0,0.0,0.0,0,1033.5,0,0,"",91
"2020-02-05 00:13:00",6.4,5.0,0.0,0.0,0,1033.5,0,0,"",91
"2020-02-05 00:14:00",6.4,5.0,0.0,0.0,0,1033.5,0,0,"",91
"2020-02-05 00:15:00",6.4,5.0,0.0,0.0,0,1033.5,0,0,"",91
"2020-02-05 00:16:00",6.4,5.0,0.0,0.0,0,1033.5,0,0,"",91
"2020-02-05 00:17:00",6.4,5.0,0.0,0.0,0,1033.5,0,0,"",91
"2020-02-05 00:18:00",6.4,5.0,0.0,0.0,0,1033.5,0,0,"",91
"2020-02-05 00:19:00",6.3,4.9,0.0,0.0,0,1033.6,0,0,"",91
"2020-02-05 00:20:00",6.3,4.9,0.0,0.0,0,1033.6,0,0,"",91
"2020-02-05 00:21:00",6.3,4.9,0.0,0.0,0,1033.5,0,0,"",91
"2020-02-05 00:22:00",6.3,4.9,0.0,0.0,0,1033.6,0,0,"",91
"2020-02-05 00:23:00",6.3,4.9,0.0,0.0,0,1033.5,0,0,"",91
"2020-02-05 00:24:00",6.3,4.9,0.0,0.0,0,1033.6,0,0,"",91
"2020-02-05 00:25:00",6.3,4.9,0.0,0.0,0,1033.6,0,0,"",91
"2020-02-05 00:26:00",6.2,4.8,0.0,0.0,0,1033.6,0,0,"",91
"2020-02-05 00:27:00",6.2,4.8,0.0,0.0,0,1033.7,0,0,"",91
"2020-02-05 00:28:00",6.2,4.7,0.0,0.0,0,1033.7,0,0,"",90
"2020-02-05 00:29:00",6.2,4.7,0.0,0.0,0,1033.7,0,0,"",90
"2020-02-05 00:30:00",6.2,4.7,0.0,0.0,0,1033.7,0,0,"",90
"2020-02-05 00:31:00",6.2,4.7,0.0,0.0,0,1033.7,0,0,"",90
"2020-02-05 00:32:00",6.2,4.7,0.0,0.0,0,1033.8,0,0,"",90
"2020-02-05 00:33:00",6.1,4.6,0.0,0.0,0,1033.8,0,0,"",90
"2020-02-05 00:34:00",6.1,4.6,0.0,0.0,0,1033.7,0,0,"",90
"2020-02-05 00:35:00",6.1,4.6,0.0,0.0,0,1033.7,0,0,"",90
"2020-02-05 00:36:00",6.1,4.6,0.0,0.0,0,1033.7,0,0,"",90
"2020-02-05 00:37:00",6.0,4.5,0.0,0.0,0,1033.7,0,0,"",90
"2020-02-05 00:38:00",6.0,4.5,0.0,0.0,0,1033.7,0,0,"",90
"2020-02-05 00:39:00",6.0,4.5,0.0,0.0,0,1033.7,0,0,"",90
"2020-02-05 00:40:00",5.9,4.4,0.0,0.0,0,1033.7,0,0,"",90
"2020-02-05 00:41:00",5.9,4.4,0.0,0.0,0,1033.6,0,0,"",90
"2020-02-05 00:42:00",5.9,4.2,0.0,0.0,0,1033.7,0,0,"",89
"2020-02-05 00:43:00",5.9,4.2,0.0,0.0,0,1033.7,0,0,"",89
"2020-02-05 00:44:00",5.9,4.2,0.0,0.0,0,1033.7,0,0,"",89
"2020-02-05 00:45:00",5.8,4.1,0.0,0.0,0,1033.6,0,0,"",89
"2020-02-05 00:46:00",5.8,4.1,0.0,0.0,0,1033.7,0,0,"",89
"2020-02-05 00:47:00",5.8,4.1,0.0,0.0,0,1033.7,0,0,"",89
"2020-02-05 00:48:00",5.8,4.1,0.0,0.0,0,1033.7,0,0,"",89
"2020-02-05 00:49:00",5.7,4.0,0.0,0.0,0,1033.7,0,0,"",89
"2020-02-05 00:50:00",5.7,4.0,0.0,0.0,0,1033.7,0,0,"",89
"2020-02-05 00:51:00",5.7,4.0,0.0,0.0,0,1033.7,0,0,"",89
"2020-02-05 00:52:00",5.7,4.0,0.0,0.0,0,1033.7,0,0,"",89
"2020-02-05 00:53:00",5.7,4.0,0.0,0.0,0,1033.7,0,0,"",89
"2020-02-05 00:54:00",5.6,3.9,0.0,0.0,0,1033.7,0,0,"",89
"2020-02-05 00:55:00",5.6,3.9,0.0,0.0,0,1033.7,0,0,"",89
"2020-02-05 00:56:00",5.6,3.9,0.0,0.0,0,1033.8,0,0,"",89
"2020-02-05 00:57:00",5.6,3.9,0.0,0.0,0,1033.7,0,0,"",89
"2020-02-05 00:58:00",5.5,3.8,0.0,0.0,0,1033.7,0,0,"",89
"2020-02-05 00:59:00",5.5,3.8,0.0,0.0,0,1033.7,0,0,"",89
"2020-02-05 01:00:00",5.5,3.8,0.0,0.0,0,1033.6,0,0,"",89
"2020-02-05 01:01:00",5.4,3.7,0.0,0.0,0,1033.7,0,0,"",89
"2020-02-05 01:02:00",5.4,3.7,0.0,0.0,0,1033.7,0,0,"",89
"2020-02-05 01:03:00",5.4,3.7,0.0,0.0,0,1033.8,0,0,"",89
"2020-02-05 01:04:00",5.3,3.6,0.0,0.0,0,1033.8,0,0,"",89
"2020-02-05 01:05:00",5.3,3.6,0.0,0.0,0,1033.8,0,0,"",89
"2020-02-05 01:06:00",5.3,3.5,0.0,0.0,0,1033.9,0,0,"",88
"2020-02-05 01:07:00",5.3,3.6,0.0,0.0,0,1033.9,0,0,"",89
"2020-02-05 01:08:00",5.2,3.5,0.0,0.0,0,1033.9,0,0,"",89
"2020-02-05 01:09:00",5.2,3.5,0.0,0.0,0,1033.9,0,0,"",89
"2020-02-05 01:10:00",5.2,3.5,0.0,0.0,0,1033.9,0,0,"",89
"2020-02-05 01:11:00",5.1,3.4,0.0,0.0,0,1033.8,0,0,"",89
"2020-02-05 01:12:00",5.1,3.4,0.0,0.0,0,1033.8,0,0,"",89
"2020-02-05 01:13:00",5.0,3.3,0.0,0.0,0,1033.8,0,0,"",89
"2020-02-05 01:14:00",5.0,3.3,0.0,0.0,0,1033.8,0,0,"",89
"2020-02-05 01:15:00",5.0,3.3,0.0,0.0,0,1033.7,0,0,"",89
"2020-02-05 01:16:00",4.9,3.2,0.0,0.0,0,1033.7,0,0,"",89
"2020-02-05 01:17:00",4.9,3.2,0.0,0.0,0,1033.8,0,0,"",89
"2020-02-05 01:18:00",4.9,3.1,0.0,0.0,0,1033.8,0,0,"",88
"2020-02-05 01:19:00",4.8,3.0,0.0,0.0,0,1033.8,0,0,"",88
"2020-02-05 01:20:00",4.8,3.0,0.0,0.0,0,1033.8,0,0,"",88
"2020-02-05 01:21:00",4.8,3.0,0.0,0.0,0,1033.8,0,0,"",88
"2020-02-05 01:22:00",4.8,3.0,0.0,0.0,0,1033.8,0,0,"",88
"2020-02-05 01:23:00",4.7,2.9,0.0,0.0,0,1033.9,0,0,"",88
"2020-02-05 01:24:00",4.7,2.9,0.0,0.0,0,1033.8,0,0,"",88
"2020-02-05 01:25:00",4.7,2.9,0.0,0.0,0,1033.8,0,0,"",88
"2020-02-05 01:26:00",4.6,2.8,0.0,0.0,0,1033.8,0,0,"",88
"2020-02-05 01:27:00",4.6,2.8,0.0,0.0,0,1033.8,0,0,"",88
"2020-02-05 01:28:00",4.6,2.8,0.0,0.0,0,1033.8,0,0,"",88
"2020-02-05 01:29:00",4.6,2.8,0.0,0.0,0,1033.8,0,0,"",88
"2020-02-05 01:30:00",4.5,2.7,0.0,0.0,0,1033.8,0,0,"",88
"2020-02-05 01:31:00",4.4,2.6,0.0,0.0,0,1033.9,0,0,"",88
"2020-02-05 01:32:00",4.4,2.6,0.0,0.0,0,1033.8,0,0,"",88
"2020-02-05 01:33:00",4.3,2.5,0.0,0.0,0,1033.8,0,0,"",88
"2020-02-05 01:34:00",4.3,2.5,0.0,0.0,0,1033.9,0,0,"",88
"2020-02-05 01:35:00",4.3,2.5,0.0,0.0,0,1033.9,0,0,"",88
"2020-02-05 01:36:00",4.3,2.5,0.0,0.0,0,1033.9,0,0,"",88
"2020-02-05 01:37:00",4.2,2.4,0.0,0.0,0,1033.9,0,0,"",88
"2020-02-05 01:38:00",4.2,2.4,0.0,0.0,0,1033.9,0,0,"",88
"2020-02-05 01:39:00",4.2,2.4,0.0,0.0,0,1033.9,0,0,"",88
"2020-02-05 01:40:00",4.2,2.4,0.0,0.0,0,1033.9,0,0,"",88
"2020-02-05 01:41:00",4.1,2.3,0.0,0.0,0,1033.9,0,0,"",88
"2020-02-05 01:42:00",4.1,2.3,0.0,0.0,0,1033.9,0,0,"",88
"2020-02-05 01:43:00",4.1,2.3,0.0,0.0,0,1033.9,0,0,"",88
"2020-02-05 01:44:00",4.0,2.2,0.0,0.0,0,1033.9,0,0,"",88
"2020-02-05 01:45:00",4.0,2.2,0.0,0.0,0,1033.8,0,0,"",88
"2020-02-05 01:46:00",4.0,2.2,0.0,0.0,0,1033.9,0,0,"",88
"2020-02-05 01:47:00",4.0,2.2,0.0,0.0,0,1033.8,0,0,"",88
"2020-02-05 01:48:00",3.9,2.1,0.0,0.0,0,1033.9,0,0,"",88
"2020-02-05 01:49:00",3.9,2.1,0.0,0.0,0,1033.8,0,0,"",88
"2020-02-05 01:50:00",3.9,2.1,0.0,0.0,0,1033.9,0,0,"",88
"2020-02-05 01:51:00",3.9,2.1,0.0,0.0,0,1033.9,0,0,"",88
"2020-02-05 01:52:00",3.9,2.1,0.0,0.0,0,1033.9,0,0,"",88
"2020-02-05 01:53:00",3.8,2.2,0.0,0.0,0,1034.0,0,0,"",89
"2020-02-05 01:54:00",3.8,2.0,0.0,0.0,0,1034.0,0,0,"",88
"2020-02-05 01:55:00",3.8,2.0,0.0,0.0,0,1034.0,0,0,"",88
"2020-02-05 01:56:00",3.8,2.0,0.0,0.0,0,1034.0,0,0,"",88
"2020-02-05 01:57:00",3.8,2.0,0.0,0.0,0,1034.0,0,0,"",88
"2020-02-05 01:58:00",3.7,1.9,0.0,0.0,0,1034.0,0,0,"",88
"2020-02-05 01:59:00",3.7,2.1,0.0,0.0,0,1033.9,0,0,"",89
"2020-02-05 02:00:00",3.7,2.1,0.0,0.0,0,1034.0,0,0,"",89
"2020-02-05 02:01:00",3.7,2.1,0.0,0.0,0,1033.9,0,0,"",89
"2020-02-05 02:02:00",3.7,2.1,0.0,0.0,0,1034.0,0,0,"",89
"2020-02-05 02:03:00",3.6,2.0,0.0,0.0,0,1033.9,0,0,"",89
"2020-02-05 02:04:00",3.6,2.0,0.0,0.0,0,1034.0,0,0,"",89
"2020-02-05 02:05:00",3.6,2.0,0.0,0.0,0,1034.0,0,0,"",89
"2020-02-05 02:06:00",3.6,2.0,0.0,0.0,0,1034.0,0,0,"",89
"2020-02-05 02:07:00",3.5,1.9,0.0,0.0,0,1034.0,0,0,"",89
"2020-02-05 02:08:00",3.5,1.7,0.0,0.0,0,1034.1,0,0,"",88
"2020-02-05 02:09:00",3.5,1.9,0.0,0.0,0,1034.1,0,0,"",89
"2020-02-05 02:10:00",3.4,1.8,0.0,0.0,0,1034.1,0,0,"",89
"2020-02-05 02:11:00",3.4,1.8,0.0,0.0,0,1034.1,0,0,"",89
"2020-02-05 02:12:00",3.4,1.8,0.0,0.0,0,1034.2,0,0,"",89
"2020-02-05 02:13:00",3.4,1.8,0.0,0.0,0,1034.1,0,0,"",89
"2020-02-05 02:14:00",3.3,1.7,0.0,0.0,0,1034.2,0,0,"",89
"2020-02-05 02:15:00",3.3,1.7,0.0,0.0,0,1034.2,0,0,"",89
"2020-02-05 02:16:00",3.3,1.7,0.0,0.0,0,1034.2,0,0,"",89
"2020-02-05 02:17:00",3.3,1.7,0.0,0.0,0,1034.1,0,0,"",89
"2020-02-05 02:18:00",3.3,1.7,0.0,0.0,0,1034.2,0,0,"",89
"2020-02-05 02:19:00",3.2,1.6,0.0,0.0,0,1034.2,0,0,"",89
"2020-02-05 02:20:00",3.2,1.6,0.0,0.0,0,1034.2,0,0,"",89
"2020-02-05 02:21:00",3.2,1.6,0.0,0.0,0,1034.2,0,0,"",89
"2020-02-05 02:22:00",3.2,1.6,0.0,0.0,0,1034.2,0,0,"",89
"2020-02-05 02:23:00",3.1,1.5,0.0,0.0,0,1034.2,0,0,"",89
"2020-02-05 02:24:00",3.1,1.5,0.0,0.0,0,1034.2,0,0,"",89
"2020-02-05 02:25:00",3.1,1.5,0.0,0.0,0,1034.2,0,0,"",89
"2020-02-05 02:26:00",3.1,1.5,0.0,0.0,0,1034.2,0,0,"",89
"2020-02-05 02:27:00",3.1,1.5,0.0,0.0,0,1034.2,0,0,"",89
"2020-02-05 02:28:00",3.1,1.5,0.0,0.0,0,1034.2,0,0,"",89
"2020-02-05 02:29:00",3.0,1.4,0.0,0.0,0,1034.2,0,0,"",89
"2020-02-05 02:30:00",2.9,1.3,0.0,0.0,0,1034.2,0,0,"",89
"2020-02-05 02:31:00",2.9,1.3,0.0,0.0,0,1034.2,0,0,"",89
"2020-02-05 02:32:00",2.9,1.3,0.0,0.0,0,1034.2,0,0,"",89
"2020-02-05 02:33:00",2.9,1.3,0.0,0.0,0,1034.2,0,0,"",89
"2020-02-05 02:34:00",2.9,1.3,0.0,0.0,0,1034.2,0,0,"",89
"2020-02-05 02:35:00",2.8,1.2,0.0,0.0,0,1034.3,0,0,"",89
"2020-02-05 02:36:00",2.8,1.2,0.0,0.0,0,1034.3,0,0,"",89
"2020-02-05 02:37:00",2.8,1.2,0.0,0.0,0,1034.4,0,0,"",89
"2020-02-05 02:38:00",2.8,1.2,0.0,0.0,0,1034.3,0,0,"",89
"2020-02-05 02:39:00",2.8,1.2,0.0,0.0,0,1034.4,0,0,"",89
"2020-02-05 02:40:00",2.8,1.2,0.0,0.0,0,1034.4,0,0,"",89
"2020-02-05 02:41:00",2.7,1.1,0.0,0.0,0,1034.4,0,0,"",89
"2020-02-05 02:42:00",2.7,1.1,0.0,0.0,0,1034.4,0,0,"",89
"2020-02-05 02:43:00",2.7,1.1,0.0,0.0,0,1034.3,0,0,"",89
"2020-02-05 02:44:00",2.7,1.1,0.0,0.0,0,1034.4,0,0,"",89
"2020-02-05 02:45:00",2.6,1.0,0.0,0.0,0,1034.4,0,0,"",89
"2020-02-05 02:46:00",2.6,1.0,0.0,0.0,0,1034.4,0,0,"",89
"2020-02-05 02:47:00",2.6,1.0,0.0,0.0,0,1034.4,0,0,"",89
"2020-02-05 02:48:00",2.6,1.0,0.0,0.0,0,1034.5,0,0,"",89
"2020-02-05 02:49:00",2.6,1.0,0.0,0.0,0,1034.5,0,0,"",89
"2020-02-05 02:50:00",2.5,0.9,0.0,0.0,0,1034.6,0,0,"",89
"2020-02-05 02:51:00",2.5,0.9,0.0,0.0,0,1034.6,0,0,"",89
"2020-02-05 02:52:00",2.5,0.9,0.0,0.0,0,1034.6,0,0,"",89
"2020-02-05 02:53:00",2.4,0.8,0.0,0.0,0,1034.6,0,0,"",89
"2020-02-05 02:54:00",2.4,0.8,0.0,0.0,0,1034.6,0,0,"",89
"2020-02-05 02:55:00",2.4,0.8,0.0,0.0,0,1034.6,0,0,"",89
"2020-02-05 02:56:00",2.4,0.8,0.0,0.0,0,1034.6,0,0,"",89
"2020-02-05 02:57:00",2.4,0.8,0.0,0.0,0,1034.6,0,0,"",89
"2020-02-05 02:58:00",2.3,0.7,0.0,0.0,0,1034.6,0,0,"",89
"2020-02-05 02:59:00",2.3,0.7,0.0,0.0,0,1034.6,0,0,"",89
"2020-02-05 03:00:00",2.3,0.7,0.0,0.0,0,1034.6,0,0,"",89
"2020-02-05 03:01:00",2.3,0.7,0.0,0.0,0,1034.6,0,0,"",89
"2020-02-05 03:02:00",2.3,0.7,0.0,0.0,0,1034.6,0,0,"",89
"2020-02-05 03:03:00",2.2,0.6,0.0,0.0,0,1034.7,0,0,"",89
"2020-02-05 03:04:00",2.2,0.6,0.0,0.0,0,1034.6,0,0,"",89
"2020-02-05 03:05:00",2.2,0.6,0.0,0.0,0,1034.7,0,0,"",89
"2020-02-05 03:06:00",2.2,0.6,0.0,0.0,0,1034.7,0,0,"",89
"2020-02-05 03:07:00",2.2,0.6,0.0,0.0,0,1034.7,0,0,"",89
"2020-02-05 03:08:00",2.2,0.6,0.0,0.0,0,1034.7,0,0,"",89
"2020-02-05 03:09:00",2.2,0.6,0.0,0.0,0,1034.8,0,0,"",89
"2020-02-05 03:10:00",2.1,0.5,0.0,0.0,0,1034.7,0,0,"",89
"2020-02-05 03:11:00",2.1,0.5,0.0,0.0,0,1034.8,0,0,"",89
"2020-02-05 03:12:00",2.1,0.5,0.0,0.0,0,1034.8,0,0,"",89
"2020-02-05 03:13:00",2.1,0.6,0.0,0.0,0,1034.8,0,0,"",90
"2020-02-05 03:14:00",2.1,0.5,0.0,0.0,0,1034.8,0,0,"",89
"2020-02-05 03:15:00",2.1,0.5,0.0,0.0,0,1034.8,0,0,"",89
"2020-02-05 03:16:00",2.0,0.4,0.0,0.0,0,1034.8,0,0,"",89
"2020-02-05 03:17:00",2.0,0.4,0.0,0.0,0,1034.8,0,0,"",89
"2020-02-05 03:18:00",1.9,0.3,0.0,0.0,0,1034.8,0,0,"",89
"2020-02-05 03:19:00",1.9,0.3,0.0,0.0,0,1034.8,0,0,"",89
"2020-02-05 03:20:00",1.9,0.3,0.0,0.0,0,1034.8,0,0,"",89
"2020-02-05 03:21:00",1.9,0.4,0.0,0.0,0,1034.8,0,0,"",90
"2020-02-05 03:22:00",1.9,0.4,0.0,0.0,0,1034.8,0,0,"",90
"2020-02-05 03:23:00",1.9,0.4,0.0,0.0,0,1034.8,0,0,"",90
"2020-02-05 03:24:00",1.8,0.3,0.0,0.0,0,1034.8,0,0,"",90
"2020-02-05 03:25:00",1.8,0.3,0.0,0.0,0,1034.8,0,0,"",90
"2020-02-05 03:26:00",1.8,0.3,0.0,0.0,0,1034.8,0,0,"",90
"2020-02-05 03:27:00",1.8,0.3,0.0,0.0,0,1034.9,0,0,"",90
"2020-02-05 03:28:00",1.8,0.3,0.0,0.0,0,1034.8,0,0,"",90
"2020-02-05 03:29:00",1.8,0.3,0.0,0.0,0,1034.8,0,0,"",90
"2020-02-05 03:30:00",1.8,0.3,0.0,0.0,0,1034.8,0,0,"",90
"2020-02-05 03:31:00",1.8,0.3,0.0,0.0,0,1034.8,0,0,"",90
"2020-02-05 03:32:00",1.8,0.3,0.0,0.0,0,1034.9,0,0,"",90
"2020-02-05 03:33:00",1.7,0.2,0.0,0.0,0,1034.9,0,0,"",90
"2020-02-05 03:34:00",1.7,0.2,0.0,0.0,0,1034.8,0,0,"",90
"2020-02-05 03:35:00",1.7,0.2,0.0,0.0,0,1034.8,0,0,"",90
"2020-02-05 03:36:00",1.7,0.2,0.0,0.0,0,1034.8,0,0,"",90
"2020-02-05 03:37:00",1.7,0.2,0.0,0.0,0,1034.9,0,0,"",90
"2020-02-05 03:38:00",1.6,0.1,0.0,0.0,0,1034.9,0,0,"",90
"2020-02-05 03:39:00",1.6,0.1,0.0,0.0,0,1034.9,0,0,"",90
"2020-02-05 03:40:00",1.6,0.1,0.0,0.0,0,1035.0,0,0,"",90
"2020-02-05 03:41:00",1.6,0.1,0.0,0.0,0,1034.9,0,0,"",90
"2020-02-05 03:42:00",1.6,0.1,0.0,0.0,0,1035.0,0,0,"",90
"2020-02-05 03:43:00",1.6,0.1,0.0,0.0,0,1035.0,0,0,"",90
"2020-02-05 03:44:00",1.6,0.1,0.0,0.0,0,1034.9,0,0,"",90
"2020-02-05 03:45:00",1.6,0.1,0.0,0.0,0,1034.9,0,0,"",90
"2020-02-05 03:46:00",1.6,0.1,0.0,0.0,0,1034.9,0,0,"",90
"2020-02-05 03:48:00",1.5,0.0,0.0,0.0,0,1035.0,0,0,"",90
"2020-02-05 03:49:00",1.5,0.0,0.0,0.0,0,1035.0,0,0,"",90
"2020-02-05 03:50:00",1.5,0.0,0.0,0.0,0,1035.0,0,0,"",90
"2020-02-05 03:51:00",1.4,"-0.1",0.0,0.0,0,1035.0,0,0,"",90
"2020-02-05 03:52:00",1.5,0.0,0.0,0.0,0,1035.0,0,0,"",90
"2020-02-05 03:53:00",1.4,"-0.1",0.0,0.0,0,1035.0,0,0,"",90
"2020-02-05 03:54:00",1.4,"-0.1",0.0,0.0,0,1035.1,0,0,"",90
"2020-02-05 03:55:00",1.4,"-0.1",0.0,0.0,0,1035.1,0,0,"",90
"2020-02-05 03:56:00",1.4,"-0.1",0.0,0.0,0,1035.1,0,0,"",90
"2020-02-05 03:57:00",1.4,"-0.1",0.0,0.0,0,1035.2,0,0,"",90
"2020-02-05 03:58:00",1.4,"-0.1",0.0,0.0,0,1035.2,0,0,"",90
"2020-02-05 03:59:00",1.3,"-0.2",0.0,0.0,0,1035.2,0,0,"",90
"2020-02-05 04:00:00",1.3,"-0.2",0.0,0.0,0,1035.2,0,0,"",90
"2020-02-05 04:01:00",1.3,"-0.2",0.0,0.0,0,1035.2,0,0,"",90
"2020-02-05 04:02:00",1.3,"-0.2",0.0,0.0,0,1035.2,0,0,"",90
"2020-02-05 04:03:00",1.3,"-0.2",0.0,0.0,0,1035.2,0,0,"",90
"2020-02-05 04:04:00",1.3,"-0.2",0.0,0.0,0,1035.2,0,0,"",90
"2020-02-05 04:05:00",1.3,"-0.2",0.0,0.0,0,1035.2,0,0,"",90
"2020-02-05 04:06:00",1.3,"-0.2",0.0,0.0,0,1035.2,0,0,"",90
"2020-02-05 04:07:00",1.3,"-0.2",0.0,0.0,0,1035.2,0,0,"",90
"2020-02-05 04:08:00",1.3,"-0.2",0.0,0.0,0,1035.2,0,0,"",90
"2020-02-05 04:09:00",1.2,"-0.3",0.0,0.0,0,1035.3,0,0,"",90
"2020-02-05 04:10:00",1.2,"-0.3",0.0,0.0,0,1035.3,0,0,"",90
"2020-02-05 04:11:00",1.2,"-0.3",0.0,0.0,0,1035.3,0,0,"",90
"2020-02-05 04:12:00",1.2,"-0.3",0.0,0.0,0,1035.3,0,0,"",90
"2020-02-05 04:13:00",1.2,"-0.3",0.0,0.0,0,1035.3,0,0,"",90
"2020-02-05 04:14:00",1.2,"-0.3",0.0,0.0,0,1035.3,0,0,"",90
"2020-02-05 04:15:00",1.2,"-0.3",0.0,0.0,0,1035.3,0,0,"",90
"2020-02-05 04:16:00",1.2,"-0.3",0.0,0.0,0,1035.3,0,0,"",90
"2020-02-05 04:17:00",1.2,"-0.3",0.0,0.0,0,1035.3,0,0,"",90
"2020-02-05 04:18:00",1.2,"-0.3",0.0,0.0,0,1035.3,0,0,"",90
"2020-02-05 04:19:00",1.2,"-0.3",0.0,0.0,0,1035.4,0,0,"",90
"2020-02-05 04:20:00",1.1,"-0.4",0.0,0.0,0,1035.4,0,0,"",90
"2020-02-05 04:21:00",1.1,"-0.4",0.0,0.0,0,1035.4,0,0,"",90
"2020-02-05 04:22:00",1.1,"-0.4",0.0,0.0,0,1035.4,0,0,"",90
"2020-02-05 04:23:00",1.1,"-0.4",0.0,0.0,0,1035.4,0,0,"",90
"2020-02-05 04:24:00",1.1,"-0.4",0.0,0.0,0,1035.5,0,0,"",90
"2020-02-05 04:25:00",1.1,"-0.4",0.0,0.0,0,1035.5,0,0,"",90
"2020-02-05 04:26:00",1.1,"-0.4",0.0,0.0,0,1035.6,0,0,"",90
"2020-02-05 04:27:00",1.1,"-0.4",0.0,0.0,0,1035.6,0,0,"",90
"2020-02-05 04:28:00",1.1,"-0.4",0.0,0.0,0,1035.6,0,0,"",90
"2020-02-05 04:29:00",1.1,"-0.4",0.0,0.0,0,1035.5,0,0,"",90
"2020-02-05 04:30:00",1.1,"-0.4",0.0,0.0,0,1035.5,0,0,"",90
"2020-02-05 04:31:00",1.0,"-0.5",0.0,0.0,0,1035.6,0,0,"",90
"2020-02-05 04:32:00",1.1,"-0.4",0.0,0.0,0,1035.5,0,0,"",90
"2020-02-05 04:33:00",1.0,"-0.5",0.0,0.0,0,1035.6,0,0,"",90
"2020-02-05 04:34:00",1.0,"-0.5",0.0,0.0,0,1035.5,0,0,"",90
"2020-02-05 04:35:00",1.0,"-0.5",0.0,0.0,0,1035.5,0,0,"",90
"2020-02-05 04:36:00",1.0,"-0.5",0.0,0.0,0,1035.5,0,0,"",90
"2020-02-05 04:37:00",1.0,"-0.5",0.0,0.0,0,1035.6,0,0,"",90
"2020-02-05 04:38:00",0.9,"-0.6",0.0,0.0,0,1035.5,0,0,"",90
"2020-02-05 04:39:00",1.0,"-0.5",0.0,0.0,0,1035.6,0,0,"",90
"2020-02-05 04:40:00",1.0,"-0.5",0.0,0.0,0,1035.5,0,0,"",90
"2020-02-05 04:41:00",0.9,"-0.4",0.0,0.0,0,1035.6,0,0,"",91
"2020-02-05 04:42:00",0.9,"-0.4",0.0,0.0,0,1035.5,0,0,"",91
"2020-02-05 04:43:00",1.0,"-0.3",0.0,0.0,0,1035.5,0,0,"",91
"2020-02-05 04:44:00",0.9,"-0.6",0.0,0.0,0,1035.5,0,0,"",90
"2020-02-05 04:45:00",0.9,"-0.6",0.0,0.0,0,1035.5,0,0,"",90
"2020-02-05 04:46:00",0.9,"-0.6",0.0,0.0,0,1035.6,0,0,"",90
"2020-02-05 04:47:00",0.9,"-0.6",0.0,0.0,0,1035.6,0,0,"",90
"2020-02-05 04:48:00",0.9,"-0.6",0.0,0.0,0,1035.6,0,0,"",90
"2020-02-05 04:49:00",0.9,"-0.6",0.0,0.0,0,1035.6,0,0,"",90
"2020-02-05 04:50:00",0.9,"-0.6",0.0,0.0,0,1035.6,0,0,"",90
"2020-02-05 04:51:00",0.9,"-0.6",0.0,0.0,0,1035.6,0,0,"",90
"2020-02-05 04:52:00",0.9,"-0.4",0.0,0.0,0,1035.6,0,0,"",91
"2020-02-05 04:53:00",0.9,"-0.4",0.0,0.0,0,1035.6,0,0,"",91
"2020-02-05 04:54:00",0.9,"-0.4",0.0,0.0,0,1035.6,0,0,"",91
"2020-02-05 04:55:00",0.9,"-0.4",0.0,0.0,0,1035.5,0,0,"",91
"2020-02-05 04:56:00",0.9,"-0.4",0.0,0.0,0,1035.6,0,0,"",91
"2020-02-05 04:57:00",0.9,"-0.4",0.0,0.0,0,1035.6,0,0,"",91
"2020-02-05 04:58:00",0.9,"-0.4",0.0,0.0,0,1035.6,0,0,"",91
"2020-02-05 04:59:00",0.9,"-0.4",0.0,0.0,0,1035.5,0,0,"",91
"2020-02-05 05:00:00",0.9,"-0.4",0.0,0.0,0,1035.6,0,0,"",91
"2020-02-05 05:01:00",0.9,"-0.4",0.0,0.0,0,1035.6,0,0,"",91
"2020-02-05 05:02:00",0.9,"-0.4",0.0,0.0,0,1035.6,0,0,"",91
"2020-02-05 05:03:00",0.9,"-0.4",0.0,0.0,0,1035.6,0,0,"",91
"2020-02-05 05:04:00",0.9,"-0.4",0.0,0.0,0,1035.6,0,0,"",91
"2020-02-05 05:05:00",0.9,"-0.4",0.0,0.0,0,1035.6,0,0,"",91
"2020-02-05 05:06:00",0.9,"-0.4",0.0,0.0,0,1035.6,0,0,"",91
"2020-02-05 05:07:00",0.9,"-0.4",0.0,0.0,0,1035.6,0,0,"",91
"2020-02-05 05:08:00",0.9,"-0.4",0.0,0.0,0,1035.6,0,0,"",91
"2020-02-05 05:09:00",0.9,"-0.4",0.0,0.0,0,1035.6,0,0,"",91
"2020-02-05 05:10:00",0.9,"-0.4",0.0,0.0,0,1035.6,0,0,"",91
"2020-02-05 05:11:00",0.8,"-0.5",0.0,0.0,0,1035.6,0,0,"",91
"2020-02-05 05:12:00",0.8,"-0.5",0.0,0.0,0,1035.6,0,0,"",91
"2020-02-05 05:13:00",0.8,"-0.5",0.0,0.0,0,1035.6,0,0,"",91
"2020-02-05 05:14:00",0.8,"-0.5",0.0,0.0,0,1035.6,0,0,"",91
"2020-02-05 05:15:00",0.8,"-0.5",0.0,0.0,0,1035.6,0,0,"",91
"2020-02-05 05:16:00",0.8,"-0.5",0.0,0.0,0,1035.6,0,0,"",91
"2020-02-05 05:17:00",0.8,"-0.5",0.0,0.0,0,1035.6,0,0,"",91
"2020-02-05 05:18:00",0.8,"-0.5",0.0,0.0,0,1035.6,0,0,"",91
"2020-02-05 05:19:00",0.8,"-0.5",0.0,0.0,0,1035.6,0,0,"",91
"2020-02-05 05:20:00",0.8,"-0.5",0.0,0.0,0,1035.6,0,0,"",91
"2020-02-05 05:21:00",0.8,"-0.5",0.0,0.0,0,1035.6,0,0,"",91
"2020-02-05 05:22:00",0.8,"-0.5",0.0,0.0,0,1035.6,0,0,"",91
"2020-02-05 05:23:00",0.8,"-0.5",0.0,0.0,0,1035.6,0,0,"",91
"2020-02-05 05:24:00",0.8,"-0.5",0.0,0.0,0,1035.6,0,0,"",91
"2020-02-05 05:25:00",0.8,"-0.5",0.0,0.0,0,1035.6,0,0,"",91
"2020-02-05 05:26:00",0.8,"-0.5",0.0,0.0,0,1035.6,0,0,"",91
"2020-02-05 05:27:00",0.8,"-0.5",0.0,0.0,0,1035.6,0,0,"",91
"2020-02-05 05:28:00",0.8,"-0.5",0.0,0.0,0,1035.6,0,0,"",91
"2020-02-05 05:29:00",0.8,"-0.5",0.0,0.0,0,1035.6,0,0,"",91
"2020-02-05 05:30:00",0.8,"-0.5",0.0,0.0,0,1035.6,0,0,"",91
"2020-02-05 05:31:00",0.8,"-0.5",0.0,0.0,0,1035.6,0,0,"",91
"2020-02-05 05:32:00",0.8,"-0.5",0.0,0.0,0,1035.6,0,0,"",91
"2020-02-05 05:33:00",0.8,"-0.5",0.0,0.0,0,1035.7,0,0,"",91
"2020-02-05 05:34:00",0.8,"-0.5",0.0,0.0,0,1035.6,0,0,"",91
"2020-02-05 05:35:00",0.7,"-0.6",0.0,0.0,0,1035.7,0,0,"",91
"2020-02-05 05:36:00",0.7,"-0.6",0.0,0.0,0,1035.6,0,0,"",91
"2020-02-05 05:37:00",0.7,"-0.6",0.0,0.0,0,1035.7,0,0,"",91
"2020-02-05 05:38:00",0.7,"-0.6",0.0,0.0,0,1035.6,0,0,"",91
"2020-02-05 05:39:00",0.7,"-0.6",0.0,0.0,0,1035.6,0,0,"",91
"2020-02-05 05:40:00",0.7,"-0.6",0.0,0.0,0,1035.6,0,0,"",91
"2020-02-05 05:41:00",0.7,"-0.6",0.0,0.0,0,1035.6,0,0,"",91
"2020-02-05 05:42:00",0.7,"-0.6",0.0,0.0,0,1035.6,0,0,"",91
"2020-02-05 05:43:00",0.7,"-0.6",0.0,0.0,0,1035.7,0,0,"",91
"2020-02-05 05:44:00",0.7,"-0.6",0.0,0.0,0,1035.6,0,0,"",91
"2020-02-05 05:45:00",0.7,"-0.6",0.0,0.0,0,1035.7,0,0,"",91
"2020-02-05 05:46:00",0.7,"-0.6",0.0,0.0,0,1035.7,0,0,"",91
"2020-02-05 05:47:00",0.7,"-0.6",0.0,0.0,0,1035.7,0,0,"",91
"2020-02-05 05:48:00",0.7,"-0.6",0.0,0.0,0,1035.8,0,0,"",91
"2020-02-05 05:49:00",0.6,"-0.7",0.0,0.0,0,1035.8,0,0,"",91
"2020-02-05 05:50:00",0.6,"-0.7",0.0,0.0,0,1035.8,0,0,"",91
"2020-02-05 05:51:00",0.6,"-0.7",0.0,0.0,0,1035.8,0,0,"",91
"2020-02-05 05:52:00",0.6,"-0.7",0.0,0.0,0,1035.8,0,0,"",91
"2020-02-05 05:53:00",0.6,"-0.7",0.0,0.0,0,1035.8,0,0,"",91
"2020-02-05 05:54:00",0.6,"-0.7",0.0,0.0,0,1035.7,0,0,"",91
"2020-02-05 05:55:00",0.6,"-0.7",0.0,0.0,0,1035.6,0,0,"",91
"2020-02-05 05:56:00",0.6,"-0.7",0.0,0.0,0,1035.6,0,0,"",91
"2020-02-05 05:57:00",0.6,"-0.7",0.0,0.0,0,1035.6,0,0,"",91
"2020-02-05 05:58:00",0.6,"-0.7",0.0,0.0,0,1035.6,0,0,"",91
"2020-02-05 05:59:00",0.6,"-0.7",0.0,0.0,0,1035.6,0,0,"",91
"2020-02-05 06:00:00",0.6,"-0.7",0.0,0.0,0,1035.6,0,0,"",91
"2020-02-05 06:01:00",0.6,"-0.7",0.0,0.0,0,1035.7,0,0,"",91
"2020-02-05 06:02:00",0.6,"-0.7",0.0,0.0,0,1035.7,0,0,"",91
"2020-02-05 06:03:00",0.6,"-0.7",0.0,0.0,0,1035.7,0,0,"",91
"2020-02-05 06:04:00",0.5,"-0.8",0.0,0.0,0,1035.7,0,0,"",91
"2020-02-05 06:05:00",0.6,"-0.7",0.0,0.0,0,1035.7,0,0,"",91
"2020-02-05 06:06:00",0.6,"-0.7",0.0,0.0,0,1035.7,0,0,"",91
"2020-02-05 06:07:00",0.5,"-0.8",0.0,0.0,0,1035.7,0,0,"",91
"2020-02-05 06:08:00",0.5,"-0.8",0.0,0.0,0,1035.7,0,0,"",91
"2020-02-05 06:09:00",0.5,"-0.8",0.0,0.0,0,1035.6,0,0,"",91
"2020-02-05 06:10:00",0.5,"-0.8",0.0,0.0,0,1035.6,0,0,"",91
"2020-02-05 06:11:00",0.5,"-0.8",0.0,0.0,0,1035.6,0,0,"",91
"2020-02-05 06:12:00",0.4,"-0.9",0.0,0.0,0,1035.6,0,0,"",91
"2020-02-05 06:13:00",0.5,"-0.8",0.0,0.0,0,1035.6,0,0,"",91
"2020-02-05 06:14:00",0.5,"-0.8",0.0,0.0,0,1035.6,0,0,"",91
"2020-02-05 06:15:00",0.5,"-0.8",0.0,0.0,0,1035.6,0,0,"",91
"2020-02-05 06:16:00",0.4,"-0.9",0.0,0.0,0,1035.6,0,0,"",91
"2020-02-05 06:17:00",0.4,"-0.9",0.0,0.0,0,1035.5,0,0,"",91
"2020-02-05 06:18:00",0.4,"-0.9",0.0,0.0,0,1035.5,0,0,"",91
"2020-02-05 06:19:00",0.4,"-0.9",0.0,0.0,0,1035.5,0,0,"",91
"2020-02-05 06:20:00",0.4,"-0.9",0.0,0.0,0,1035.5,0,0,"",91
"2020-02-05 06:21:00",0.4,"-0.9",0.0,0.0,0,1035.6,0,0,"",91
"2020-02-05 06:22:00",0.4,"-0.9",0.0,0.0,0,1035.6,0,0,"",91
"2020-02-05 06:23:00",0.4,"-0.9",0.0,0.0,0,1035.6,0,0,"",91
"2020-02-05 06:24:00",0.4,"-0.9",0.0,0.0,0,1035.6,0,0,"",91
"2020-02-05 06:25:00",0.4,"-0.9",0.0,0.0,0,1035.6,0,0,"",91
"2020-02-05 06:26:00",0.4,"-0.9",0.0,0.0,0,1035.6,0,0,"",91
"2020-02-05 06:27:00",0.4,"-0.9",0.0,0.0,0,1035.7,0,0,"",91
"2020-02-05 06:28:00",0.4,"-0.9",0.0,0.0,0,1035.7,0,0,"",91
"2020-02-05 06:29:00",0.4,"-0.9",0.0,0.0,0,1035.7,0,0,"",91
"2020-02-05 06:30:00",0.4,"-0.9",0.0,0.0,0,1035.7,0,0,"",91
"2020-02-05 06:31:00",0.4,"-0.9",0.0,0.0,0,1035.7,0,0,"",91
"2020-02-05 06:32:00",0.4,"-0.9",0.0,0.0,0,1035.6,0,0,"",91
"2020-02-05 06:33:00",0.4,"-0.9",0.0,0.0,0,1035.6,0,0,"",91
"2020-02-05 06:34:00",0.3,"-1.0",0.0,0.0,0,1035.7,0,0,"",91
"2020-02-05 06:35:00",0.4,"-0.9",0.0,0.0,0,1035.7,0,0,"",91
"2020-02-05 06:36:00",0.4,"-0.9",0.0,0.0,0,1035.7,0,0,"",91
"2020-02-05 06:37:00",0.3,"-1.0",0.0,0.0,0,1035.7,0,0,"",91
"2020-02-05 06:38:00",0.3,"-1.0",0.0,0.0,0,1035.7,0,0,"",91
"2020-02-05 06:39:00",0.3,"-1.0",0.0,0.0,0,1035.7,0,0,"",91
"2020-02-05 06:40:00",0.4,"-0.9",0.0,0.0,0,1035.7,0,0,"",91
"2020-02-05 06:41:00",0.3,"-1.0",0.0,0.0,0,1035.8,0,0,"",91
"2020-02-05 06:42:00",0.3,"-1.0",0.0,0.0,0,1035.8,0,0,"",91
"2020-02-05 06:43:00",0.3,"-1.0",0.0,0.0,0,1035.7,0,0,"",91
"2020-02-05 06:44:00",0.3,"-1.0",0.0,0.0,0,1035.7,0,0,"",91
"2020-02-05 06:45:00",0.3,"-1.0",0.0,0.0,0,1035.7,0,0,"",91
"2020-02-05 06:46:00",0.3,"-1.0",0.0,0.0,0,1035.7,0,0,"",91
"2020-02-05 06:47:00",0.3,"-1.0",0.0,0.0,0,1035.7,0,0,"",91
"2020-02-05 06:48:00",0.3,"-1.0",0.0,0.0,0,1035.7,0,0,"",91
"2020-02-05 06:49:00",0.3,"-1.0",0.0,0.0,0,1035.7,0,0,"",91
"2020-02-05 06:50:00",0.3,"-1.0",0.0,0.0,0,1035.8,0,0,"",91